User: anonymous   Login
Location: Lancaster
(34.6980°N, 118.1360°W)
Time: 05:27:10
(UTC-08:00)
Language:

Envisat - Orbit

View from above orbital plane
View from above orbital plane
View from above satellite
View from above satellite

Ground track
Ground track

The orbit data is extracted from the following two-line orbital elements,

1 27386U 02009A   18018.12887301  .00000005  00000-0  15239-4 0  9994
2 27386  98.2050  59.1092 0001395  82.0402 278.0962 14.37913482831965
Epoch (UTC): 18 January 2018 03:05:34
Eccentricity: 0.0001395
inclination: 98.2050°
perigee height: 764 km
apogee height: 766 km
right ascension of ascending node: 59.1092°
argument of perigee: 82.0402°
revolutions per day: 14.37913482
mean anomaly at epoch: 278.0962°
orbit number at epoch: 83196

The dashed part of the orbit path shows where the satellite is in the earth's shadow,  

DLR